Location: *
(46.1006°N, 1.8394°E)
Time: 03:38:12
(UTC+00:00)

Lacrosse 5 rocket - Pass Details

Date: 20 September 2019
Orbit: 459 x 639 km, 57.0° (Epoch: 22 October)

Event Time Altitude Azimuth Distance (km) Brightness Sun altitude
Rises 20:17:34 0° 237° (WSW) 2,489 5.0 -24.4°
Reaches altitude 10° 20:19:40 10° 240° (WSW) 1,631 4.1 -24.7°
Enters shadow 20:21:49 33° 250° (WSW) 819 2.5 -25.1°
